LOT1CD LFPG-EPWA

Flight info

Callsign LOT1CD
Flight time 1h 45m
Altitude 37000
Route RANUX DCT VALEK DCT LIPNI DCT LIMGO DCT MASEK DCT ROBEL DCT POZUM DCT OLUMA DCT OBOKU DCT DOSIX DCT BIMPA
Aircraft B38M/M-SDE1FGHILORVWXY/HB1

Departure

Time 2026-05-08 20:51
Airport Charles de Gaulle International Airport (LFPG)

Arrival

Time 2026-05-08 22:36
Airport Warsaw Chopin Airport (EPWA)
Time Latitude Longitude Altitude Speed Heading
2026-05-08 20:11 49.01427 2.53762 357 ft 0 kts 124°
2026-05-08 20:39 49.01425 2.53764 357 ft 0 kts 142°
2026-05-08 20:39 49.01411 2.53760 363 ft 6 kts 206°
2026-05-08 20:39 49.01414 2.53675 364 ft 11 kts 296°
2026-05-08 20:39 49.01481 2.53606 360 ft 13 kts 354°
2026-05-08 20:40 49.01551 2.53604 359 ft 11 kts 360°
2026-05-08 20:40 49.01631 2.53597 359 ft 12 kts 354°
2026-05-08 20:40 49.01723 2.53585 357 ft 10 kts 354°
2026-05-08 20:40 49.01731 2.53583 357 ft 0 kts 351°
2026-05-08 20:41 49.01743 2.53578 357 ft 5 kts 340°
2026-05-08 20:42 49.01775 2.53499 364 ft 15 kts 270°
2026-05-08 20:42 49.01763 2.53285 357 ft 24 kts 265°
2026-05-08 20:42 49.01749 2.53014 357 ft 27 kts 265°
2026-05-08 20:42 49.01734 2.52726 357 ft 28 kts 265°
2026-05-08 20:43 49.01722 2.52489 357 ft 18 kts 265°
2026-05-08 20:43 49.01716 2.52380 364 ft 9 kts 265°
2026-05-08 20:43 49.01709 2.52274 356 ft 13 kts 265°
2026-05-08 20:43 49.01701 2.52088 361 ft 21 kts 264°
2026-05-08 20:44 49.01689 2.51866 357 ft 22 kts 265°
2026-05-08 20:44 49.01766 2.51735 361 ft 8 kts 351°
2026-05-08 20:44 49.01783 2.51734 363 ft 2 kts 357°
2026-05-08 20:44 49.01798 2.51733 357 ft 0 kts 357°
2026-05-08 20:45 49.01799 2.51733 357 ft 0 kts 357°
2026-05-08 20:45 49.01822 2.51725 359 ft 9 kts 339°
2026-05-08 20:45 49.01854 2.51591 357 ft 20 kts 265°
2026-05-08 20:46 49.01844 2.51414 363 ft 16 kts 266°
2026-05-08 20:46 49.01894 2.51265 361 ft 13 kts 327°
2026-05-08 20:46 49.01957 2.51255 358 ft 0 kts 13°
2026-05-08 20:47 49.01959 2.51256 358 ft 2 kts 16°
2026-05-08 20:48 49.02008 2.51291 364 ft 14 kts 36°
2026-05-08 20:48 49.02070 2.51426 357 ft 0 kts 83°
2026-05-08 20:50 49.02070 2.51428 357 ft 2 kts 83°
2026-05-08 20:50 49.02087 2.51730 354 ft 65 kts 85°
2026-05-08 20:50 49.02142 2.52770 358 ft 129 kts 85°
2026-05-08 20:50 49.02247 2.54404 473 ft 169 kts 85°
2026-05-08 20:51 49.02286 2.56223 1077 ft 175 kts 85°
2026-05-08 20:51 49.02379 2.58061 1928 ft 170 kts 84°
2026-05-08 20:51 49.02497 2.59950 2497 ft 191 kts 85°
2026-05-08 20:51 49.02625 2.62110 2917 ft 218 kts 85°
2026-05-08 20:52 49.02765 2.64550 3487 ft 238 kts 85°
2026-05-08 20:52 49.02860 2.66246 4142 ft 241 kts 86°
2026-05-08 20:52 49.02997 2.68881 4827 ft 258 kts 86°
2026-05-08 20:52 49.03141 2.71673 5599 ft 267 kts 87°
2026-05-08 20:53 49.03281 2.74534 6478 ft 275 kts 86°
2026-05-08 20:53 49.03424 2.77473 7309 ft 280 kts 86°
2026-05-08 20:53 49.03569 2.80463 8161 ft 286 kts 86°
2026-05-08 20:53 49.03713 2.83473 8990 ft 291 kts 86°
2026-05-08 20:54 49.03862 2.86581 9835 ft 297 kts 86°
2026-05-08 20:54 49.04013 2.89759 10512 ft 307 kts 86°
2026-05-08 20:54 49.04176 2.93090 10898 ft 327 kts 85°
2026-05-08 20:54 49.04436 2.96632 11293 ft 344 kts 84°
2026-05-08 20:55 49.04710 3.00318 11838 ft 355 kts 84°
2026-05-08 20:55 49.04987 3.04064 12682 ft 357 kts 84°
2026-05-08 20:55 49.05264 3.07849 13436 ft 362 kts 84°
2026-05-08 20:55 49.05543 3.11682 14183 ft 365 kts 84°
2026-05-08 20:56 49.05822 3.15527 15013 ft 362 kts 84°
2026-05-08 20:56 49.06095 3.19315 16025 ft 358 kts 84°
2026-05-08 20:56 49.06367 3.23108 16705 ft 363 kts 84°
2026-05-08 20:56 49.06641 3.26941 17410 ft 365 kts 84°
2026-05-08 20:57 49.06915 3.30799 18107 ft 368 kts 84°
2026-05-08 20:57 49.07192 3.34698 18731 ft 371 kts 84°
2026-05-08 20:57 49.07469 3.38631 19274 ft 375 kts 83°
2026-05-08 20:57 49.07748 3.42608 19816 ft 379 kts 83°
2026-05-08 20:58 49.08027 3.46619 20356 ft 382 kts 83°
2026-05-08 20:58 49.08309 3.50681 20888 ft 386 kts 82°
2026-05-08 20:58 49.08591 3.54764 21415 ft 390 kts 82°
2026-05-08 20:58 49.08870 3.58850 21928 ft 393 kts 81°
2026-05-08 20:59 49.09153 3.63011 22439 ft 397 kts 81°
2026-05-08 20:59 49.09438 3.67225 22948 ft 401 kts 81°
2026-05-08 20:59 49.09723 3.71456 23444 ft 404 kts 81°
2026-05-08 20:59 49.10009 3.75747 23873 ft 408 kts 81°
2026-05-08 21:00 49.10296 3.80067 24289 ft 411 kts 81°
2026-05-08 21:00 49.10584 3.84421 24700 ft 414 kts 81°
2026-05-08 21:00 49.10873 3.88809 25090 ft 417 kts 81°
2026-05-08 21:00 49.11162 3.93241 25485 ft 420 kts 81°
2026-05-08 21:01 49.11453 3.97719 25618 ft 431 kts 81°
2026-05-08 21:01 49.11751 4.02328 25839 ft 437 kts 81°
2026-05-08 21:01 49.12047 4.06933 26292 ft 439 kts 81°
2026-05-08 21:01 49.12343 4.11589 26630 ft 443 kts 81°
2026-05-08 21:02 49.12641 4.16280 27016 ft 445 kts 81°
2026-05-08 21:02 49.12938 4.21000 27369 ft 448 kts 81°
2026-05-08 21:02 49.13235 4.25749 27724 ft 451 kts 81°
2026-05-08 21:02 49.13532 4.30528 28080 ft 454 kts 81°
2026-05-08 21:03 49.13911 4.35312 28403 ft 453 kts 73°
2026-05-08 21:03 49.14942 4.39811 28740 ft 448 kts 63°
2026-05-08 21:03 49.16116 4.44234 29056 ft 453 kts 63°
2026-05-08 21:03 49.17304 4.48697 29430 ft 454 kts 63°
2026-05-08 21:04 49.18509 4.53173 29738 ft 457 kts 62°
2026-05-08 21:04 49.19724 4.57675 30052 ft 459 kts 62°
2026-05-08 21:04 49.20945 4.62202 30339 ft 462 kts 62°
2026-05-08 21:04 49.22170 4.66746 30702 ft 462 kts 62°
2026-05-08 21:05 49.23389 4.71279 31066 ft 462 kts 62°
2026-05-08 21:05 49.24615 4.75845 31296 ft 465 kts 62°
2026-05-08 21:05 49.25839 4.80412 31583 ft 466 kts 62°
2026-05-08 21:05 49.27053 4.84954 31858 ft 468 kts 62°
2026-05-08 21:06 49.28283 4.89563 32234 ft 467 kts 62°
2026-05-08 21:06 49.29510 4.94168 32612 ft 467 kts 62°
2026-05-08 21:06 49.30734 4.98774 32938 ft 467 kts 62°
2026-05-08 21:06 49.31957 5.03382 33288 ft 467 kts 62°
2026-05-08 21:07 49.33177 5.07989 33625 ft 467 kts 62°
2026-05-08 21:07 49.34395 5.12600 33954 ft 467 kts 62°
2026-05-08 21:07 49.35607 5.17196 34230 ft 467 kts 63°
2026-05-08 21:07 49.36823 5.21817 34496 ft 467 kts 63°
2026-05-08 21:08 49.38038 5.26442 34757 ft 467 kts 63°
2026-05-08 21:08 49.39254 5.31084 35003 ft 468 kts 63°
2026-05-08 21:08 49.40466 5.35713 35305 ft 468 kts 63°
2026-05-08 21:08 49.41679 5.40361 35628 ft 467 kts 64°
2026-05-08 21:09 49.42884 5.44986 35886 ft 467 kts 64°
2026-05-08 21:09 49.44089 5.49619 36106 ft 467 kts 65°
2026-05-08 21:09 49.45288 5.54240 36335 ft 468 kts 65°
2026-05-08 21:09 49.46492 5.58887 36547 ft 468 kts 65°
2026-05-08 21:10 49.47697 5.63552 36763 ft 469 kts 65°
2026-05-08 21:10 49.48900 5.68211 36967 ft 469 kts 65°
2026-05-08 21:10 49.50103 5.72878 37104 ft 470 kts 65°
2026-05-08 21:11 49.52437 5.82209 37100 ft 469 kts 66°
2026-05-08 21:11 49.54753 5.91582 37099 ft 470 kts 67°
2026-05-08 21:12 49.57068 6.00966 37103 ft 470 kts 67°
2026-05-08 21:12 49.59380 6.10382 37118 ft 470 kts 67°
2026-05-08 21:13 49.61685 6.19806 37100 ft 468 kts 67°
2026-05-08 21:13 49.64070 6.29115 37093 ft 466 kts 59°
2026-05-08 21:14 49.67149 6.37927 37097 ft 468 kts 59°
2026-05-08 21:14 49.70233 6.46768 37102 ft 468 kts 59°
2026-05-08 21:15 49.73316 6.55622 37104 ft 468 kts 59°
2026-05-08 21:15 49.76394 6.64494 37107 ft 468 kts 60°
2026-05-08 21:16 49.79462 6.73367 37110 ft 467 kts 60°
2026-05-08 21:16 49.82521 6.82247 37100 ft 467 kts 60°
2026-05-08 21:17 49.85556 6.91085 37112 ft 469 kts 60°
2026-05-08 21:17 49.88615 7.00024 37108 ft 469 kts 60°
2026-05-08 21:18 49.91664 7.08967 37117 ft 469 kts 60°
2026-05-08 21:18 49.94705 7.17919 37128 ft 469 kts 60°
2026-05-08 21:19 49.97733 7.26864 37140 ft 469 kts 61°
2026-05-08 21:19 50.00759 7.35831 37133 ft 469 kts 61°
2026-05-08 21:20 50.03781 7.44823 37129 ft 469 kts 61°
2026-05-08 21:20 50.06791 7.53806 37116 ft 469 kts 61°
2026-05-08 21:21 50.09802 7.62827 37121 ft 469 kts 61°
2026-05-08 21:21 50.12786 7.71801 37122 ft 469 kts 61°
2026-05-08 21:22 50.15780 7.80834 37126 ft 469 kts 62°
2026-05-08 21:22 50.18772 7.89895 37125 ft 469 kts 62°
2026-05-08 21:23 50.21749 7.98943 37132 ft 469 kts 62°
2026-05-08 21:23 50.24728 8.08028 37133 ft 469 kts 62°
2026-05-08 21:24 50.27694 8.17109 37127 ft 469 kts 62°
2026-05-08 21:24 50.30656 8.26211 37131 ft 469 kts 62°
2026-05-08 21:25 50.33596 8.35276 37134 ft 470 kts 62°
2026-05-08 21:25 50.36534 8.44369 37136 ft 471 kts 62°
2026-05-08 21:26 50.39480 8.53522 37146 ft 470 kts 62°
2026-05-08 21:26 50.42420 8.62686 37135 ft 470 kts 62°
2026-05-08 21:27 50.45349 8.71855 37148 ft 470 kts 62°
2026-05-08 21:27 50.48273 8.81037 37147 ft 470 kts 62°
2026-05-08 21:28 50.51191 8.90235 37147 ft 470 kts 62°
2026-05-08 21:28 50.54093 8.99418 37157 ft 470 kts 62°
2026-05-08 21:29 50.56994 9.08634 37143 ft 469 kts 63°
2026-05-08 21:29 50.59882 9.17842 37143 ft 469 kts 63°
2026-05-08 21:30 50.62746 9.27005 37151 ft 469 kts 63°
2026-05-08 21:30 50.65636 9.36278 37151 ft 470 kts 63°
2026-05-08 21:31 50.68491 9.45473 37167 ft 471 kts 63°
2026-05-08 21:31 50.71364 9.54756 37159 ft 470 kts 63°
2026-05-08 21:32 50.73820 9.64292 37174 ft 470 kts 71°
2026-05-08 21:32 50.75842 9.74126 37165 ft 471 kts 71°
2026-05-08 21:33 50.77849 9.83983 37163 ft 472 kts 71°
2026-05-08 21:33 50.79848 9.93856 37161 ft 472 kts 71°
2026-05-08 21:34 50.81845 10.03766 37167 ft 473 kts 71°
2026-05-08 21:34 50.83827 10.13654 37160 ft 473 kts 71°
2026-05-08 21:35 50.85806 10.23574 37173 ft 473 kts 72°
2026-05-08 21:35 50.87778 10.33513 37174 ft 473 kts 72°
2026-05-08 21:36 50.89762 10.43428 37178 ft 472 kts 70°
2026-05-08 21:36 50.91871 10.53200 37174 ft 473 kts 70°
2026-05-08 21:37 50.93976 10.63076 37174 ft 473 kts 71°
2026-05-08 21:37 50.96074 10.72977 37190 ft 473 kts 71°
2026-05-08 21:38 50.97810 10.81204 37193 ft 473 kts 71°
2026-05-08 21:38 50.99886 10.91088 37190 ft 473 kts 71°
2026-05-08 21:39 51.01957 11.00998 37189 ft 474 kts 71°
2026-05-08 21:39 51.04027 11.10949 37186 ft 474 kts 71°
2026-05-08 21:40 51.06085 11.20896 37183 ft 474 kts 71°
2026-05-08 21:40 51.08131 11.30831 37176 ft 473 kts 71°
2026-05-08 21:41 51.11191 11.45785 37182 ft 474 kts 71°
2026-05-08 21:41 51.13221 11.55768 37189 ft 474 kts 71°
2026-05-08 21:42 51.15226 11.65679 37177 ft 474 kts 71°
2026-05-08 21:42 51.17241 11.75693 37185 ft 474 kts 71°
2026-05-08 21:43 51.19249 11.85716 37179 ft 474 kts 71°
2026-05-08 21:43 51.21244 11.95733 37186 ft 475 kts 71°
2026-05-08 21:44 51.23233 12.05766 37181 ft 476 kts 72°
2026-05-08 21:44 51.25220 12.15845 37176 ft 475 kts 72°
2026-05-08 21:45 51.27196 12.25919 37184 ft 475 kts 72°
2026-05-08 21:45 51.29157 12.35971 37182 ft 475 kts 72°
2026-05-08 21:46 51.31105 12.46005 37182 ft 475 kts 72°
2026-05-08 21:46 51.33055 12.56105 37188 ft 476 kts 72°
2026-05-08 21:47 51.35000 12.66232 37193 ft 476 kts 72°
2026-05-08 21:47 51.36932 12.76346 37197 ft 477 kts 72°
2026-05-08 21:48 51.38861 12.86497 37184 ft 477 kts 72°
2026-05-08 21:48 51.40780 12.96655 37185 ft 477 kts 72°
2026-05-08 21:49 51.42691 13.06822 37176 ft 477 kts 72°
2026-05-08 21:49 51.44596 13.17011 37185 ft 478 kts 73°
2026-05-08 21:50 51.46483 13.27164 37188 ft 478 kts 73°
2026-05-08 21:50 51.48372 13.37379 37184 ft 478 kts 73°
2026-05-08 21:51 51.50252 13.47603 37188 ft 478 kts 73°
2026-05-08 21:51 51.52123 13.57833 37187 ft 478 kts 73°
2026-05-08 21:52 51.53989 13.68097 37191 ft 479 kts 73°
2026-05-08 21:52 51.55850 13.78390 37189 ft 479 kts 73°
2026-05-08 21:53 51.57690 13.88622 37187 ft 479 kts 73°
2026-05-08 21:53 51.59534 13.98935 37189 ft 479 kts 73°
2026-05-08 21:54 51.61365 14.09241 37184 ft 479 kts 73°
2026-05-08 21:54 51.63191 14.19569 37186 ft 479 kts 73°
2026-05-08 21:55 51.64990 14.29800 37186 ft 479 kts 73°
2026-05-08 21:56 51.67704 14.45323 37181 ft 480 kts 74°
2026-05-08 21:56 51.69502 14.55682 37181 ft 480 kts 74°
2026-05-08 21:57 51.71294 14.66059 37184 ft 480 kts 74°
2026-05-08 21:57 51.72505 14.76593 37192 ft 480 kts 88°
2026-05-08 21:58 51.73001 14.87351 37180 ft 481 kts 85°
2026-05-08 21:58 51.73586 14.98112 37186 ft 482 kts 85°
2026-05-08 21:59 51.74165 15.08779 37187 ft 481 kts 85°
2026-05-08 21:59 51.74739 15.19542 37186 ft 481 kts 85°
2026-05-08 22:00 51.75304 15.30308 37189 ft 482 kts 85°
2026-05-08 22:00 51.75860 15.41096 37202 ft 482 kts 85°
2026-05-08 22:01 51.76404 15.51853 37192 ft 482 kts 85°
2026-05-08 22:01 51.76942 15.62666 37189 ft 482 kts 85°
2026-05-08 22:02 51.77467 15.73445 37179 ft 482 kts 86°
2026-05-08 22:02 51.77985 15.84274 37190 ft 483 kts 86°
2026-05-08 22:03 51.78491 15.95065 37189 ft 483 kts 86°
2026-05-08 22:03 51.78985 16.05819 37190 ft 483 kts 86°
2026-05-08 22:04 51.79473 16.16647 37191 ft 483 kts 86°
2026-05-08 22:04 51.79949 16.27444 37185 ft 483 kts 86°
2026-05-08 22:05 51.80418 16.38289 37190 ft 484 kts 86°
2026-05-08 22:05 51.80877 16.49151 37189 ft 484 kts 86°
2026-05-08 22:06 51.81325 16.60001 37190 ft 484 kts 86°
2026-05-08 22:06 51.81761 16.70790 37208 ft 484 kts 86°
2026-05-08 22:07 51.82190 16.81631 37189 ft 484 kts 86°
2026-05-08 22:07 51.82609 16.92509 37191 ft 484 kts 87°
2026-05-08 22:08 51.83018 17.03368 37191 ft 484 kts 87°
2026-05-08 22:08 51.83416 17.14228 37188 ft 484 kts 87°
2026-05-08 22:09 51.83805 17.25110 37187 ft 484 kts 87°
2026-05-08 22:09 51.84184 17.35991 37187 ft 485 kts 87°
2026-05-08 22:10 51.84552 17.46825 37186 ft 485 kts 87°
2026-05-08 22:10 51.84910 17.57687 37187 ft 485 kts 87°
2026-05-08 22:11 51.85260 17.68602 37185 ft 485 kts 87°
2026-05-08 22:11 51.85599 17.79487 37174 ft 485 kts 88°
2026-05-08 22:12 51.85928 17.90371 37171 ft 486 kts 88°
2026-05-08 22:12 51.86089 17.95839 36908 ft 486 kts 88°
2026-05-08 22:12 51.86247 18.01281 36466 ft 482 kts 88°
2026-05-08 22:12 51.86403 18.06715 35566 ft 487 kts 88°
2026-05-08 22:13 51.86558 18.12218 34473 ft 490 kts 87°
2026-05-08 22:13 51.86709 18.17663 33577 ft 490 kts 87°
2026-05-08 22:13 51.86858 18.23147 33026 ft 485 kts 87°
2026-05-08 22:13 51.87002 18.28550 32646 ft 476 kts 87°
2026-05-08 22:14 51.87141 18.33840 32189 ft 470 kts 88°
2026-05-08 22:14 51.87277 18.39106 31628 ft 468 kts 88°
2026-05-08 22:14 51.87410 18.44359 31001 ft 467 kts 88°
2026-05-08 22:14 51.87541 18.49600 30421 ft 465 kts 88°
2026-05-08 22:15 51.87669 18.54830 29803 ft 463 kts 88°
2026-05-08 22:15 51.87794 18.60018 29209 ft 460 kts 88°
2026-05-08 22:15 51.87915 18.65152 28671 ft 456 kts 88°
2026-05-08 22:15 51.88032 18.70237 28134 ft 452 kts 88°
2026-05-08 22:16 51.88148 18.75312 27590 ft 449 kts 88°
2026-05-08 22:16 51.88260 18.80343 27049 ft 446 kts 88°
2026-05-08 22:16 51.88369 18.85332 26508 ft 443 kts 88°
2026-05-08 22:16 51.88476 18.90319 25977 ft 441 kts 88°
2026-05-08 22:17 51.88580 18.95267 25451 ft 439 kts 88°
2026-05-08 22:17 51.88682 19.00200 24927 ft 437 kts 88°
2026-05-08 22:17 51.88781 19.05108 24411 ft 435 kts 88°
2026-05-08 22:17 51.88878 19.09990 23903 ft 434 kts 88°
2026-05-08 22:18 51.88971 19.14840 23331 ft 432 kts 88°
2026-05-08 22:18 51.89062 19.19632 22798 ft 429 kts 88°
2026-05-08 22:18 51.89151 19.24435 22313 ft 425 kts 88°
2026-05-08 22:18 51.89238 19.29196 21830 ft 421 kts 88°
2026-05-08 22:19 51.89321 19.33916 21361 ft 418 kts 88°
2026-05-08 22:19 51.89402 19.38600 20898 ft 415 kts 88°
2026-05-08 22:19 51.89481 19.43249 20438 ft 412 kts 88°
2026-05-08 22:19 51.89558 19.47875 19986 ft 409 kts 88°
2026-05-08 22:20 51.89632 19.52442 19545 ft 406 kts 88°
2026-05-08 22:20 51.89703 19.56999 19098 ft 404 kts 89°
2026-05-08 22:20 51.89773 19.61530 18672 ft 401 kts 89°
2026-05-08 22:20 51.89840 19.65987 18223 ft 389 kts 89°
2026-05-08 22:21 51.89903 19.70289 17791 ft 378 kts 89°
2026-05-08 22:21 51.89963 19.74545 17363 ft 376 kts 89°
2026-05-08 22:21 51.90022 19.78764 16954 ft 374 kts 89°
2026-05-08 22:21 51.90079 19.82955 16549 ft 371 kts 89°
2026-05-08 22:22 51.90134 19.87120 16150 ft 369 kts 89°
2026-05-08 22:22 51.90187 19.91261 15745 ft 367 kts 89°
2026-05-08 22:22 51.90263 19.95357 15383 ft 363 kts 84°
2026-05-08 22:22 51.90538 19.99368 15260 ft 352 kts 83°
2026-05-08 22:23 51.90794 20.03234 15036 ft 350 kts 84°
2026-05-08 22:23 51.91048 20.07255 14616 ft 358 kts 84°
2026-05-08 22:23 51.91292 20.11244 14040 ft 363 kts 84°
2026-05-08 22:23 51.91538 20.15326 13533 ft 364 kts 84°
2026-05-08 22:24 51.91780 20.19390 13136 ft 360 kts 84°
2026-05-08 22:24 51.92017 20.23401 12803 ft 355 kts 84°
2026-05-08 22:24 51.92249 20.27363 12446 ft 351 kts 84°
2026-05-08 22:24 51.92478 20.31285 12084 ft 348 kts 84°
2026-05-08 22:25 51.92704 20.35165 11726 ft 345 kts 84°
2026-05-08 22:25 51.92923 20.38965 11347 ft 332 kts 84°
2026-05-08 22:25 51.93133 20.42623 11036 ft 319 kts 84°
2026-05-08 22:25 51.93269 20.45004 10937 ft 309 kts 84°
2026-05-08 22:26 51.93463 20.48410 10811 ft 307 kts 84°
2026-05-08 22:26 51.93657 20.51841 10683 ft 305 kts 84°
2026-05-08 22:26 51.93850 20.55265 10533 ft 305 kts 84°
2026-05-08 22:26 51.94042 20.58700 10395 ft 305 kts 84°
2026-05-08 22:27 51.94232 20.62116 10253 ft 305 kts 84°
2026-05-08 22:27 51.94422 20.65541 9918 ft 304 kts 84°
2026-05-08 22:27 51.94611 20.68970 9223 ft 307 kts 84°
2026-05-08 22:27 51.94799 20.72406 8520 ft 309 kts 84°
2026-05-08 22:28 51.94988 20.75873 7866 ft 309 kts 85°
2026-05-08 22:28 51.95176 20.79337 7224 ft 308 kts 85°
2026-05-08 22:28 51.95363 20.82805 6652 ft 306 kts 85°
2026-05-08 22:28 51.95545 20.86194 6276 ft 296 kts 85°
2026-05-08 22:29 51.95719 20.89453 5923 ft 285 kts 85°
2026-05-08 22:29 51.95886 20.92598 5584 ft 275 kts 84°
2026-05-08 22:29 51.96044 20.95597 5286 ft 266 kts 84°
2026-05-08 22:29 51.96201 20.98576 4945 ft 259 kts 85°
2026-05-08 22:30 51.96347 21.01384 4681 ft 247 kts 85°
2026-05-08 22:30 51.96484 21.04115 4361 ft 239 kts 85°
2026-05-08 22:30 51.96709 21.06722 4028 ft 228 kts 69°
2026-05-08 22:30 51.97541 21.08786 3682 ft 214 kts 38°
2026-05-08 22:31 51.98819 21.09784 3352 ft 200 kts
2026-05-08 22:31 52.00144 21.09714 3162 ft 181 kts 350°
2026-05-08 22:31 52.01307 21.09406 3164 ft 163 kts 348°
2026-05-08 22:31 52.02393 21.08947 3129 ft 160 kts 338°
2026-05-08 22:32 52.03408 21.08202 3044 ft 161 kts 331°
2026-05-08 22:32 52.04392 21.07355 2853 ft 159 kts 330°
2026-05-08 22:32 52.05370 21.06503 2654 ft 159 kts 330°
2026-05-08 22:32 52.06341 21.05656 2444 ft 157 kts 331°
2026-05-08 22:33 52.07309 21.04813 2237 ft 159 kts 332°
2026-05-08 22:33 52.08280 21.03963 2034 ft 159 kts 332°
2026-05-08 22:33 52.09255 21.03114 1803 ft 158 kts 331°
2026-05-08 22:33 52.10171 21.02315 1661 ft 142 kts 332°
2026-05-08 22:34 52.11019 21.01570 1467 ft 137 kts 331°
2026-05-08 22:34 52.11849 21.00827 1209 ft 135 kts 331°
2026-05-08 22:34 52.12673 21.00088 1023 ft 135 kts 332°
2026-05-08 22:34 52.13510 20.99385 811 ft 138 kts 333°
2026-05-08 22:35 52.14358 20.98641 629 ft 139 kts 332°
2026-05-08 22:35 52.15214 20.97893 432 ft 140 kts 332°
2026-05-08 22:35 52.16030 20.97189 348 ft 120 kts 329°
2026-05-08 22:35 52.16584 20.96704 342 ft 65 kts 332°
2026-05-08 22:36 52.16931 20.96510 340 ft 38 kts 359°
2026-05-08 22:36 52.17069 20.96533 341 ft 10 kts 34°
2026-05-08 22:36 52.17087 20.96564 338 ft 0 kts 54°
2026-05-08 22:37 52.17089 20.96569 338 ft 1 kts 55°
2026-05-08 22:37 52.17099 20.96593 340 ft 4 kts 57°
2026-05-08 22:37 52.17101 20.96638 340 ft 5 kts 117°
2026-05-08 22:38 52.17069 20.96676 341 ft 7 kts 149°
2026-05-08 22:38 52.17017 20.96723 339 ft 10 kts 151°
2026-05-08 22:38 52.16944 20.96789 338 ft 14 kts 152°
2026-05-08 22:38 52.16851 20.96871 341 ft 17 kts 151°